Date String (YYYY-MM-DD hh:mm:ss) UTC,Instrument flags,Ambient pressure (hPa),Sample flow (lpm),Bypass flow (lpm),Sample temperature (°C),Ambient temperature (°C),ASC tube jacket temperature (°C),LED temperature (°C),Box temperature (°C),Sample RH (%),Span deviation,Mass concentration (μg/m³),Mass concentration (μg/m³),Mass concentration (μg/m³)
DateTimeUTC,F1_M11,P_M11,Q1_M11,Q2_M11,T1_M11,T2_M11,T3_M11,T4_M11,T5_M11,U1_M11,ZSPAN_M11,X2_M11,X0_M11,X1_M11
2022-03-31 23:00:00,,0815.9,5.00,0.00,28.4,27.8,00.0,37.2,30.3,05.5,0000.0,0003.30,0009.32,0001.65
2022-03-31 23:01:00,,0815.9,4.99,0.00,28.5,27.8,00.0,37.2,30.3,05.5,0000.0,0003.37,0009.61,0001.67
2022-03-31 23:02:00,,0815.9,5.01,0.00,28.5,27.8,00.0,37.2,30.3,05.2,0000.0,0003.36,0009.41,0001.63
2022-03-31 23:03:00,,0815.8,5.01,0.00,28.5,27.9,00.0,37.3,30.4,05.2,0000.0,0003.36,0009.57,0001.60
2022-03-31 23:04:00,,0815.9,4.99,0.00,28.5,27.9,00.0,37.3,30.4,05.2,0000.0,0003.38,0009.63,0001.58
2022-03-31 23:05:00,,0815.9,5.01,0.00,28.5,27.9,00.0,37.3,30.4,04.4,0000.0,0003.35,0008.55,0001.56
2022-03-31 23:06:00,,0815.9,5.01,0.00,28.5,27.9,00.0,37.3,30.4,04.4,0000.0,0003.28,0008.40,0001.53
2022-03-31 23:07:00,,0816.0,4.99,0.00,28.5,27.9,00.0,37.3,30.4,04.5,0000.0,0003.27,0008.39,0001.50
2022-03-31 23:08:00,,0816.0,5.01,0.00,28.6,27.9,00.0,37.3,30.4,04.6,0000.0,0003.23,0008.12,0001.47
2022-03-31 23:09:00,,0815.9,5.00,0.00,28.6,27.9,00.0,37.4,30.4,04.4,0000.0,0003.18,0007.92,0001.41
2022-03-31 23:10:00,,0815.8,4.99,0.00,28.6,27.9,00.0,37.4,30.4,04.5,0000.0,0003.13,0008.75,0001.34
2022-03-31 23:11:00,,0815.8,4.99,0.00,28.6,28.0,00.0,37.4,30.4,04.3,0000.0,0003.11,0008.91,0001.29
2022-03-31 23:12:00,,0815.8,5.01,0.00,28.6,28.0,00.0,37.4,30.5,04.3,0000.0,0002.93,0008.58,0001.21
2022-03-31 23:13:00,,0815.8,4.99,0.00,28.6,28.0,00.0,37.4,30.5,04.0,0000.0,0002.85,0008.52,0001.15
2022-03-31 23:14:00,,0815.8,5.00,0.00,28.6,28.0,00.0,37.4,30.5,03.9,0000.0,0002.84,0008.26,0001.13
2022-03-31 23:15:00,,0815.8,5.01,0.00,28.6,28.0,00.0,37.4,30.4,04.0,0000.0,0002.71,0008.08,0001.08
2022-03-31 23:16:00,,0815.8,5.00,0.00,28.6,28.0,00.0,37.5,30.5,04.2,0000.0,0002.66,0008.11,0001.06
2022-03-31 23:17:00,,0815.8,5.00,0.00,28.7,28.0,00.0,37.5,30.5,04.5,0000.0,0002.74,0008.22,0001.08
2022-03-31 23:18:00,,0815.8,5.00,0.00,28.7,28.0,00.0,37.5,30.5,04.3,0000.0,0002.71,0008.16,0001.08
2022-03-31 23:19:00,,0815.7,5.01,0.00,28.7,28.0,00.0,37.5,30.5,04.2,0000.0,0002.70,0007.60,0001.06
2022-03-31 23:20:00,,0815.8,5.01,0.00,28.7,28.0,00.0,37.5,30.5,04.0,0000.0,0002.67,0007.92,0001.04
2022-03-31 23:21:00,,0815.7,4.99,0.00,28.7,28.0,00.0,37.5,30.5,04.1,0000.0,0002.57,0007.30,0001.03
2022-03-31 23:22:00,,0815.6,5.01,0.00,28.7,28.0,00.0,37.5,30.5,04.3,0000.0,0002.55,0007.27,0001.03
2022-03-31 23:23:00,,0815.9,5.01,0.00,28.7,28.0,00.0,37.5,30.5,04.5,0000.0,0002.62,0007.54,0001.04
2022-03-31 23:24:00,,0815.7,4.99,0.00,28.7,28.0,00.0,37.5,30.5,04.2,0000.0,0002.64,0007.99,0001.05
2022-03-31 23:25:00,,0815.8,4.99,0.00,28.7,28.0,00.0,37.5,30.5,04.2,0000.0,0002.54,0008.14,0001.05
2022-03-31 23:26:00,,0815.8,5.01,0.00,28.7,28.0,00.0,37.6,30.5,04.2,0000.0,0002.59,0008.25,0001.05
2022-03-31 23:27:00,,0815.9,5.00,0.00,28.7,28.0,00.0,37.6,30.5,04.3,0000.0,0002.66,0008.30,0001.07
2022-03-31 23:28:00,,0815.8,4.99,0.00,28.7,28.0,00.0,37.6,30.5,04.5,0000.0,0002.65,0008.27,0001.08
2022-03-31 23:29:00,,0815.9,5.01,0.00,28.7,28.0,00.0,37.6,30.5,04.4,0000.0,0002.63,0008.36,0001.08
2022-03-31 23:30:00,,0815.9,5.00,0.00,28.7,28.1,00.0,37.6,30.6,04.5,0000.0,0002.66,0008.50,0001.11
2022-03-31 23:31:00,,0815.9,4.99,0.00,28.7,28.1,00.0,37.6,30.6,04.5,0000.0,0002.69,0008.63,0001.14
2022-03-31 23:32:00,,0815.9,5.00,0.00,28.7,28.1,00.0,37.6,30.6,04.3,0000.0,0002.73,0008.58,0001.17
2022-03-31 23:33:00,,0815.9,5.01,0.00,28.8,28.1,00.0,37.6,30.6,04.4,0000.0,0002.75,0008.52,0001.19
2022-03-31 23:34:00,,0815.9,5.00,0.00,28.8,28.1,00.0,37.6,30.6,04.5,0000.0,0002.68,0008.30,0001.19
2022-03-31 23:35:00,,0815.9,4.99,0.00,28.7,28.1,00.0,37.6,30.5,04.9,0000.0,0002.67,0008.22,0001.21
2022-03-31 23:36:00,,0816.0,5.00,0.00,28.7,28.1,00.0,37.6,30.5,05.6,0000.0,0002.78,0007.99,0001.25
2022-03-31 23:37:00,,0816.0,5.01,0.00,28.7,28.0,00.0,37.6,30.5,05.8,0000.0,0002.93,0008.42,0001.31
2022-03-31 23:38:00,,0815.9,4.99,0.00,28.7,28.0,00.0,37.6,30.5,06.1,0000.0,0002.91,0008.33,0001.36
2022-03-31 23:39:00,,0815.9,5.01,0.00,28.7,28.0,00.0,37.6,30.5,05.9,0000.0,0002.95,0008.32,0001.41
2022-03-31 23:40:00,,0816.0,5.00,0.00,28.7,28.1,00.0,37.6,30.5,06.0,0000.0,0003.10,0008.80,0001.49
2022-03-31 23:41:00,,0816.0,4.99,0.00,28.8,28.0,00.0,37.6,30.5,06.0,0000.0,0003.20,0009.08,0001.53
2022-03-31 23:42:00,,0816.0,5.01,0.00,28.8,28.0,00.0,37.7,30.6,06.3,0000.0,0003.25,0009.38,0001.58
2022-03-31 23:43:00,,0816.1,5.00,0.00,28.8,28.1,00.0,37.7,30.6,06.2,0000.0,0003.29,0009.10,0001.62
2022-03-31 23:44:00,,0816.0,5.00,0.00,28.8,28.1,00.0,37.7,30.6,06.2,0000.0,0003.31,0009.15,0001.64
2022-03-31 23:45:00,,0816.1,4.99,0.00,28.8,28.1,00.0,37.7,30.6,06.1,0000.0,0003.37,0009.33,0001.70
2022-03-31 23:46:00,,0816.0,5.01,0.00,28.8,28.1,00.0,37.7,30.6,05.9,0000.0,0003.39,0009.11,0001.74
2022-03-31 23:47:00,,0816.0,4.99,0.00,28.8,28.1,00.0,37.7,30.7,06.0,0000.0,0003.41,0009.07,0001.77
2022-03-31 23:48:00,,0816.0,4.99,0.00,28.8,28.1,00.0,37.7,30.7,05.9,0000.0,0003.41,0008.96,0001.77
2022-03-31 23:49:00,,0816.0,5.00,0.00,28.8,28.1,00.0,37.7,30.7,06.0,0000.0,0003.46,0009.89,0001.78
2022-03-31 23:50:00,,0816.0,5.00,0.00,28.8,28.1,00.0,37.7,30.7,05.9,0000.0,0003.51,0010.32,0001.76
2022-03-31 23:51:00,,0816.0,5.00,0.00,28.8,28.1,00.0,37.7,30.6,06.1,0000.0,0003.50,0010.41,0001.75
2022-03-31 23:52:00,,0816.0,5.02,0.00,28.8,28.2,00.0,37.7,30.6,06.2,0000.0,0003.50,0010.98,0001.76
2022-03-31 23:53:00,,0816.0,4.99,0.00,28.8,28.1,00.0,37.7,30.6,06.3,0000.0,0003.51,0011.84,0001.76
2022-03-31 23:54:00,,0816.0,5.01,0.00,28.8,28.1,00.0,37.7,30.6,06.1,0000.0,0003.53,0011.81,0001.79
2022-03-31 23:55:00,,0816.0,5.00,0.00,28.9,28.1,00.0,37.7,30.7,05.9,0000.0,0003.60,0012.17,0001.81
2022-03-31 23:56:00,,0816.0,4.99,0.00,28.9,28.1,00.0,37.7,30.7,06.1,0000.0,0003.58,0012.40,0001.82
2022-03-31 23:57:00,,0815.9,5.01,0.00,28.9,28.1,00.0,37.8,30.6,05.9,0000.0,0003.62,0012.96,0001.83
2022-03-31 23:58:00,,0815.9,5.01,0.00,28.9,28.1,00.0,37.8,30.6,05.7,0000.0,0003.62,0013.04,0001.84
2022-03-31 23:59:00,,0816.0,4.99,0.00,28.9,28.1,00.0,37.8,30.6,05.7,0000.0,0003.59,0013.13,0001.85
